Location: *
(60.1759°S, 155.0663°W)
Time: 21:46:53
(UTC+00:00)

GEOS 3 Rocket - Pass Details

Date: 17 September 2019
Orbit: 790 x 829 km, 115.0° (Epoch: 16 October)

Event Time Altitude Azimuth Distance (km) Brightness Sun altitude
Rises 12:25:45 0° 108° (ESE) 3,401 7.7 -26.9°
Reaches altitude 10° 12:28:07 10° 112° (ESE) 2,464 6.9 -26.7°
Maximum altitude 12:33:20 54° 187° (S) 1,011 4.2 -26.3°
Enters shadow 12:35:10 37° 242° (WSW) 1,282 4.5 -26.1°
